Weather in Sosnovoborsk

Russia / Krasnoyarsk Krai     56°07′12″N   93°20′07″E
temp.,
°C
wind,
m/s
gust,
m/s
humid.,
%
clouds,
%
prec.,
mm/h
press.,
hPa
HPBL,
m
14 may, fri
fri1401:00+6sse225540 0.0 101430
04:00+5sse2252100 0.0 101326
07:00+9s234732 0.0 1013112
10:00+16w3628100 0.0 1010956
13:00+14wnw91062100 0.7 10111658
16:00+11wnw5968100 2.6 10131449
19:00+7nnw597241 2.8 10171157
22:00+4ssw22795 0.0 101923
15 may, sat
sat1501:00+4sw3581100 0.0 102099
04:00+4sw31074100 0.0 1020236
07:00+8sw5125495 0.0 1018857
10:00+11wsw81548100 0.0 10161188
13:00+12wsw9164944 0.4 10151304
16:00+13wsw81451100 0.0 10151153
19:00+15wsw7125581 0.0 10141101
22:00+13wsw61461100 0.1 1014907
16 may, sun
sun1601:00+12wsw51375100 2.2 1013865
04:00+11wnw3893100 3.3 1013697
07:00+8nne1288100 3.9 1015188
10:00+8ene1185100 0.1 1015169
13:00+10ne1183100 0.1 1013280
16:00+9ene2394100 1.6 1010170
19:00+8nne2498100 15.3 1010294
22:00+7n2496100 0.9 1011300
17 may, mon
mon1701:00+6n2394100 1.0 1012261
04:00+5nw1292100 0.0 1013169
07:00+6nnw228477 0.0 1014420
10:00+9nnw336289 0.0 1015967
13:00+12nnw3448100 0.0 10141562
16:00+13nw3444100 0.0 10141715
19:00+11nw355098 0.0 1014428
22:00+7w2261100 0.0 101517
18 may, tue
tue1801:00+7sw1167100 0.0 101412
04:00+6ssw2270100 0.0 101328
07:00+7se2274100 0.2 1011126
10:00+7ese2292100 1.6 1008169
13:00+7e1294100 2.9 1007195
16:00+8nne1289100 0.1 1007327
19:00+7nw1292100 0.1 1008142
22:00+6nnw119358 0.0 100938